Location: �clusier
(49.9361°N, 2.7869°E)
Time: 20:38:59
(UTC+00:00)

Cosmos 1452 Rocket - Pass Details

Date: 24 October 2021
Orbit: 767 x 775 km, 74.1° (Epoch: 04 December)

Event Time Altitude Azimuth Distance (km) Brightness Sun altitude
Rises 05:36:52 0° 338° (NNW) 3,266 6.5 -8.4°
Reaches altitude 10° 05:39:21 10° 344° (NNW) 2,335 5.8 -8.0°
Maximum altitude 05:44:30 50° 60° (ENE) 982 4.5 -7.2°
Drops below altitude 10° 05:49:37 10° 136° (SE) 2,318 6.9 -6.4°
Sets 05:52:04 0° 142° (SE) 3,241 7.6 -6.0°
